Вернуться в каталог

STARLINK-37290

АктивенСвязьVLEO
NORAD 68546·PAYLOAD·🇺🇸 United States

Запущен Apr 2, 2026 с Cape Canaveral Space Force Station

Loading…

Ближайшие Пролёты (ближайшие 24 часа)

TLE

СвежийSource: CelesTrak SupGP

Эпоха: Sep 15, 2026, 04:10 UTC

1 68546C 26070E   26258.17409722 -.00028862  00000+0 -85283-3 0  2583
2 68546  53.1585 198.7988 0001355  83.8701  37.7240 15.34401156    13

Отслеживайте STARLINK-37290 в реальном времени с AllMySat

Download on the App Store